This is the latest recevied weather packets stored in our database for station/object K5RWS. If no packets are shown the sender has not sent any weather packets the latest 10 day(s).
| Time | Temp. | Humidity | Pressure | Rain* | Wind** | Luminosity | Snow |
|---|---|---|---|---|---|---|---|
| 1777740364 | 13.33° C | 53% | 1026.6 hPa | 0 mm | - | 651 W/m² | - |
| 1777740061 | 13.33° C | 53% | 1026.5 hPa | 0 mm | - | 643 W/m² | - |
| 1777739756 | 13.33° C | 53% | 1026.4 hPa | 0 mm | - | 634 W/m² | - |
| 1777739454 | 12.22° C | 55% | 1026.4 hPa | 0 mm | - | 616 W/m² | - |
| 1777739150 | 12.22° C | 55% | 1026.2 hPa | 0 mm | - | 602 W/m² | - |
| 1777738848 | 11.67° C | 55% | 1026.5 hPa | 0 mm | - | 589 W/m² | - |
| 1777738545 | 11.67° C | 54% | 1026.5 hPa | 0 mm | - | 579 W/m² | - |
| 1777738242 | 11.67° C | 55% | 1026.5 hPa | 0 mm | - | 566 W/m² | - |
| 1777737940 | 11.11° C | 57% | 1026.6 hPa | 0 mm | - | 553 W/m² | - |
| 1777737638 | 11.11° C | 57% | 1026.4 hPa | 0 mm | - | 540 W/m² | - |
| 1777737337 | 11.67° C | 56% | 1026.4 hPa | 0 mm | - | 524 W/m² | - |
| 1777737033 | 11.11° C | 57% | 1026.5 hPa | 0 mm | - | 515 W/m² | - |
| 1777736728 | 11.11° C | 57% | 1026.5 hPa | 0 mm | - | 494 W/m² | - |
| 1777736095 | 11.11° C | 57% | 1026.6 hPa | 0 mm | - | 472 W/m² | - |
| 1777735792 | 10.56° C | 60% | 1026.5 hPa | 0 mm | - | 457 W/m² | - |
| 1777735490 | 10.56° C | 61% | 1026.5 hPa | 0 mm | - | 442 W/m² | - |
| 1777735187 | 10° C | 61% | 1026.4 hPa | 0 mm | - | 428 W/m² | - |
| 1777734884 | 10° C | 62% | 1026.4 hPa | 0 mm | - | 412 W/m² | - |
| 1777734581 | 10° C | 63% | 1026.4 hPa | 0 mm | - | 396 W/m² | - |
| 1777734278 | 10° C | 64% | 1026.5 hPa | 0 mm | - | 382 W/m² | - |
| 1777733974 | 9.44° C | 64% | 1026.5 hPa | 0 mm | - | 351 W/m² | - |
| 1777733671 | 10° C | 64% | 1026.4 hPa | 0 mm | - | 304 W/m² | - |
| 1777733367 | 9.44° C | 64% | 1026.5 hPa | 0 mm | - | 336 W/m² | - |
| 1777733065 | 9.44° C | 65% | 1026.6 hPa | 0 mm | - | 334 W/m² | - |
| 1777732760 | 8.89° C | 65% | 1026.4 hPa | 0 mm | - | 317 W/m² | - |
* Rain latest hour (hover to see other rain measurements)
** Current wind speed in m/s (hover to see current wind gust speed)